Zurück zum Katalog

SL-12 R/B(2)

AktivHEO
NORAD 25660·ROCKET BODY·🇷🇺 Russia

Gestartet Mar 21, 1999 von Baikonur Cosmodrome

Loading…

Nächste Überflüge (nächste 24 Stunden)

TLE

AktuellSource: Space-Track

Epoche: Sep 14, 2026, 14:13 UTC

1 25660U 99013D   26257.59243442 -.00000129  00000-0  00000-0 0  9999
2 25660  13.1212  93.9673 4596390 104.2493  38.1511  1.74923396175665

Verfolge SL-12 R/B(2) in Echtzeit mit AllMySat

Download on the App Store